Regional Weather Roundup
Issued by NWS

Home | Current Version | Previous Version | Graphics & Text | Print | Product List | Glossary Off
Versions: 1 2 3 4 5 6 7 8 9 10 11 12 13 14 15 16 17 18 19 20 21 22 23 24 25 26 27 28 29 30 31 32 33 34 35 36 37 38 39 40 41 42 43 44 45 46 47 48 49 50

000
ASUS43 KDTX 300901
RWRMI
MICHIGAN HOURLY REGIONAL WEATHER ROUNDUP
NATIONAL WEATHER SERVICE DETROIT/PONTIAC MI
400 AM EST FRI JAN 30 2015

NOTE: "FAIR" INDICATES FEW OR NO CLOUDS BELOW 12,000 FEET WITH NO
SIGNIFICANT WEATHER AND/OR OBSTRUCTION TO VISIBILITY.

MIZ047>049-052>055-059>063-066>070-074>076-081>083-301000-
SOUTHEAST LOWER MICHIGAN

CITY           SKY/WX    TMP DP  RH WIND       PRES   REMARKS
ADRIAN         CLOUDY    22  11  62 N16G30    30.21R WCI   8
ALMA           CLOUDY    19  10  68 NW16G23   30.26R WCI   4
ANN ARBOR      CLOUDY    22  13  68 N18G29    30.19R WCI   7
BAD AXE        CLOUDY    15   9  80 NW18G30   30.20R HAZE    WCI  -2
CARO           CLOUDY    15   8  72 NW16G22   30.22R WCI   0
DETROIT CITY   CLOUDY    23  12  62 NW17G24   30.17R WCI   9
DETROIT        FLURRIES  22  11  62 NW20G30   30.18R WCI   7
FLINT          CLOUDY    21  10  62 NW23      30.21R WCI   5
GROSSE ILE     PTCLDY    23  12  63 NW20G31   30.16R WCI   8
HILLSDALE      CLOUDY    21  13  68 NW15G23   30.20R WCI   8
HOWELL         CLOUDY    20  11  69 NW13G26   30.20R WCI   7

CITY           SKY/WX    TMP DP  RH WIND       PRES   REMARKS
JACKSON        CLOUDY    21  11  65 NW14G29   30.22R WCI   8
LAMBERTVILLE   CLOUDY    25  14  63 NW10      30.20R WCI  15
LANSING        CLOUDY    20  12  71 NW16      30.25R WCI   6
LAPEER         FLURRIES  17  10  71 N17G25    30.18R WCI   2
MASON          LGT SNOW  21  13  71 N17G24    30.22R WCI   6
MONROE         CLOUDY    25  14  63 NW12G20   30.17R WCI  14
MT. CLEMENS    FLURRIES  20  13  73 NW20G26   30.15R WCI   5
PONTIAC        CLOUDY    19  11  70 NW17G28   30.15R WCI   4
PORT HOPE        N/A     18  12  77 N16G24    30.17R WCI   3
PORT HURON     LGT SNOW  18  12  79 NW17G23   30.16R WCI   2
TRI CITIES     MOCLDY    17   7  64 N17G25    30.25R WCI   1
SAGINAW HB     MOCLDY    18   9  68 NW22G28   30.25R WCI   0
$$
MIZ043>046-050>051-056>058-064>065-071>073-077>080-301000-
SOUTHWEST LOWER MICHIGAN

CITY           SKY/WX    TMP DP  RH WIND       PRES   REMARKS
BATTLE CREEK   CLOUDY    22  11  62 NW10      30.27R WCI  11
BENTON HARBOR  LGT SNOW  24  18  77 N13G23    30.34R WCI  12
BIG RAPIDS     CLOUDY    19  13  79 N10       30.27R WCI   7
COLDWATER      PTCLDY    20  11  68 NW14      30.25R WCI   7
FREMONT        CLOUDY    20  11  67 N15G23    30.31R WCI   7
HOLLAND        CLOUDY    23  10  57 N17G28    30.34R WCI   9
GRAND RAPIDS   CLOUDY    21  13  71 NW14      30.30R WCI   8
IONIA          CLOUDY    22  12  64 NW15      30.26R WCI   9
KALAMAZOO      MOCLDY    21  10  62 NW22      30.29R WCI   5
LUDINGTON      CLOUDY    21  10  61 N14G25    30.36R WCI   8
MARSHALL       CLOUDY    20  10  65 NW10G22   30.24R WCI   9
MOUNT PLEASANT CLOUDY    18   8  63 NW12G18   30.26R WCI   6
MUSKEGON       CLOUDY    22  11  62 NW18G26   30.35R WCI   7
SOUTH HAVEN    CLOUDY    26  15  63 N14G24    30.33R WCI  14
$$
MIZ016>042-301000-
NORTHERN LOWER MICHIGAN

CITY           SKY/WX    TMP DP  RH WIND       PRES   REMARKS
ALPENA         LGT SNOW   9   4  80 NW18G25   30.27R WCI -10
BEAVER ISLAND  PTCLDY    12   4  71 CALM      30.35R
BELLAIRE       CLOUDY    15   5  65 N7        30.34R WCI   5
CADILLAC       CLOUDY    15   7  69 NW16G24   30.24R WCI  -1
CHARLEVOIX     CLOUDY    14   5  69 N17G26    30.37R WCI  -3
FRANKFORT      CLOUDY    19  11  68 NW17G24   30.35R WCI   4
GAYLORD        FLURRIES   8   2  76 MISG      30.25R
GRAYLING       CLOUDY    12   5  74 N16G28    30.26R HAZE    WCI  -5
HARBOR SPRINGS CLOUDY    11   2  68 N8        30.33R WCI  -1
HOUGHTON LAKE  LGT SNOW  12   6  77 N16       30.25R WCI  -5
MANISTEE       CLOUDY    19   7  58 N12G23    30.35R WCI   7
OSCODA         CLOUDY    11   4  73 N22G35    30.23R WCI  -8
PELLSTON       CLOUDY     9   1  70 N12       30.34R WCI  -6
ROGERS CITY    CLOUDY     9   5  83 NW14G21   30.30R WCI  -7
TRAVERSE CITY  CLOUDY    18   7  62 N20G30    30.32R WCI   2
$$
MIZ007>008-015-301000-
EASTERN UPPER MICHIGAN

CITY           SKY/WX    TMP DP  RH WIND       PRES   REMARKS
KINROSS        CLEAR      0  -6  78 N15       30.32R WCI -20
MACKINAC ISLAN CLOUDY     7   1  76 N15       30.32R WCI -11
NEWBERRY       CLOUDY     9   5  84 N12       30.33R WCI  -6
S. S. MARIE    FAIR      -1 -10  65 NW9       30.34R WCI -16
MUNISING         N/A     16   9  74 N17G29    30.38R WCI   0
$$
MIZ004>006-011>014-085-301000-
CENTRAL UPPER MICHIGAN

CITY           SKY/WX    TMP DP  RH WIND       PRES   REMARKS
MANISTIQUE     CLOUDY    13  10  89 CALM      30.36R
ESCANABA       CLOUDY    16   1  53 NW10G16   30.40S WCI   3
MENOMINEE      CLOUDY    16   1  53 N12       30.42R WCI   3
SAWYER-GWINN   CLOUDY    10   3  72 N12       30.36R WCI  -4
$$
MIZ001>003-009>011-084-301000-
WESTERN UPPER MICHIGAN

CITY           SKY/WX    TMP DP  RH WIND       PRES   REMARKS
IRON MOUNTAIN  CLOUDY    12   2  64 NW12      30.38R WCI  -2
HOUGHTON       LGT SNOW   9   2  73 NW12      30.41R WCI  -6
COPPER HARBOR    N/A     13   6  74 NE21G29   30.43S WCI  -5
IRONWOOD       CLOUDY    12   3  67 NW7       30.41S WCI   2
$$

ABBREVIATIONS USED IN REMARKS
   TC - TEMPERATURE IN CELSIUS
  WCI - WIND CHILL INDEX
   HX - HEAT INDEX
  VSB - VISIBILITY



USA.gov is the U.S. government's official web portal to all federal, state and local government web resources and services.